NOZ19S EGKK-ENBR

Flight info

Callsign NOZ19S
Flight time N/A
Altitude 37000
Route FRANE M604 GIVPO DCT GIBSU DCT ALOTI DCT ALUVA
Aircraft B738/M-SDE2E3FGHIRWXY/LB1

Departure

Time N/A
Airport London Gatwick Airport (EGKK)

Arrival

Time 2026-04-28 19:59
Airport Bergen Airport, Flesland (ENBR)
Time Latitude Longitude Altitude Speed Heading
2026-04-28 19:08 55.62389 3.13016 37482 ft 408 kts
2026-04-28 19:09 55.68057 3.13708 37483 ft 407 kts
2026-04-28 19:09 55.73682 3.14797 37486 ft 406 kts
2026-04-28 19:10 55.79278 3.15991 37487 ft 405 kts
2026-04-28 19:10 55.84848 3.17150 37490 ft 404 kts
2026-04-28 19:11 55.90430 3.18285 37488 ft 403 kts
2026-04-28 19:11 55.95981 3.19405 37489 ft 402 kts
2026-04-28 19:12 56.01546 3.20528 37491 ft 402 kts
2026-04-28 19:12 56.07102 3.21653 37493 ft 401 kts
2026-04-28 19:13 56.12615 3.22773 37493 ft 401 kts
2026-04-28 19:13 56.18166 3.23903 37494 ft 401 kts
2026-04-28 19:14 56.23719 3.25038 37493 ft 402 kts
2026-04-28 19:14 56.29279 3.26177 37509 ft 402 kts
2026-04-28 19:15 56.34834 3.27318 37512 ft 402 kts
2026-04-28 19:15 56.39458 3.28271 37515 ft 402 kts
2026-04-28 19:16 56.45952 3.29613 37513 ft 402 kts
2026-04-28 19:16 56.51519 3.30767 37515 ft 402 kts
2026-04-28 19:17 56.57045 3.31916 37515 ft 402 kts
2026-04-28 19:17 56.62616 3.33077 37517 ft 402 kts
2026-04-28 19:18 56.68169 3.34239 37514 ft 401 kts
2026-04-28 19:18 56.73718 3.35402 37519 ft 401 kts
2026-04-28 19:19 56.79228 3.36841 37516 ft 399 kts 14°
2026-04-28 19:19 56.84597 3.39357 37521 ft 398 kts 17°
2026-04-28 19:20 56.89028 3.41626 37516 ft 397 kts 17°
2026-04-28 19:20 56.94353 3.44349 37518 ft 397 kts 17°
2026-04-28 19:21 56.99685 3.47044 37528 ft 397 kts 17°
2026-04-28 19:21 57.05013 3.49723 37519 ft 397 kts 17°
2026-04-28 19:22 57.09440 3.51950 37525 ft 397 kts 17°
2026-04-28 19:22 57.15640 3.55077 37518 ft 396 kts 17°
2026-04-28 19:23 57.20953 3.57765 37528 ft 396 kts 17°
2026-04-28 19:23 57.26281 3.60469 37520 ft 396 kts 17°
2026-04-28 19:24 57.31571 3.63161 37521 ft 396 kts 17°
2026-04-28 19:24 57.36877 3.65870 37519 ft 395 kts 16°
2026-04-28 19:25 57.42180 3.68586 37520 ft 395 kts 16°
2026-04-28 19:25 57.47471 3.71304 37522 ft 394 kts 16°
2026-04-28 19:26 57.52767 3.74032 37522 ft 394 kts 16°
2026-04-28 19:26 57.58021 3.76747 37519 ft 394 kts 16°
2026-04-28 19:27 57.63303 3.79484 37522 ft 394 kts 16°
2026-04-28 19:27 57.68586 3.82231 37522 ft 394 kts 16°
2026-04-28 19:28 57.73865 3.84983 37522 ft 394 kts 16°
2026-04-28 19:28 57.79141 3.87743 37523 ft 394 kts 16°
2026-04-28 19:29 57.83531 3.90045 37518 ft 394 kts 16°
2026-04-28 19:29 57.89663 3.93271 37520 ft 394 kts 16°
2026-04-28 19:30 57.94936 3.96054 37531 ft 394 kts 16°
2026-04-28 19:30 58.00209 3.98845 37517 ft 394 kts 16°
2026-04-28 19:31 58.05480 4.01645 37520 ft 393 kts 16°
2026-04-28 19:31 58.10753 4.04453 37527 ft 393 kts 16°
2026-04-28 19:32 58.16006 4.07260 37522 ft 393 kts 16°
2026-04-28 19:32 58.21274 4.10083 37519 ft 393 kts 16°
2026-04-28 19:33 58.26547 4.12918 37517 ft 393 kts 16°
2026-04-28 19:33 58.31817 4.15760 37517 ft 393 kts 16°
2026-04-28 19:34 58.37092 4.18614 37527 ft 393 kts 16°
2026-04-28 19:34 58.42328 4.21455 37424 ft 395 kts 16°
2026-04-28 19:35 58.44979 4.22897 36938 ft 398 kts 16°
2026-04-28 19:35 58.47641 4.24347 36348 ft 396 kts 16°
2026-04-28 19:35 58.50288 4.25791 35703 ft 396 kts 15°
2026-04-28 19:35 58.52942 4.27241 35054 ft 396 kts 15°
2026-04-28 19:36 58.55593 4.28692 34375 ft 397 kts 15°
2026-04-28 19:36 58.58253 4.30150 33605 ft 398 kts 15°
2026-04-28 19:36 58.60927 4.31618 32875 ft 398 kts 15°
2026-04-28 19:36 58.63594 4.33085 32142 ft 399 kts 15°
2026-04-28 19:37 58.66268 4.34558 31400 ft 400 kts 15°
2026-04-28 19:37 58.68046 4.35538 30915 ft 401 kts 15°
2026-04-28 19:37 58.71556 4.37478 30469 ft 389 kts 15°
2026-04-28 19:37 58.74195 4.38938 29868 ft 401 kts 15°
2026-04-28 19:38 58.76921 4.40448 29268 ft 409 kts 15°
2026-04-28 19:38 58.79638 4.41957 28734 ft 402 kts 15°
2026-04-28 19:38 58.82310 4.43443 28126 ft 397 kts 15°
2026-04-28 19:38 58.84920 4.44898 27570 ft 391 kts 15°
2026-04-28 19:39 58.87518 4.46348 26992 ft 386 kts 15°
2026-04-28 19:39 58.90087 4.47784 26436 ft 381 kts 15°
2026-04-28 19:39 58.92619 4.49200 25890 ft 377 kts 15°
2026-04-28 19:39 58.95126 4.50606 25353 ft 373 kts 15°
2026-04-28 19:40 58.97605 4.51997 24816 ft 369 kts 15°
2026-04-28 19:40 59.00063 4.53379 24287 ft 366 kts 15°
2026-04-28 19:40 59.02499 4.54751 23697 ft 363 kts 15°
2026-04-28 19:40 59.04913 4.56112 23119 ft 359 kts 15°
2026-04-28 19:41 59.07298 4.57458 22588 ft 354 kts 15°
2026-04-28 19:41 59.09653 4.58790 22060 ft 350 kts 15°
2026-04-28 19:41 59.11973 4.60103 21552 ft 346 kts 15°
2026-04-28 19:41 59.14280 4.61411 21028 ft 343 kts 15°
2026-04-28 19:42 59.16565 4.62709 20521 ft 340 kts 15°
2026-04-28 19:42 59.18829 4.63996 20019 ft 338 kts 15°
2026-04-28 19:42 59.21078 4.65276 19527 ft 335 kts 16°
2026-04-28 19:42 59.22560 4.66121 19201 ft 334 kts 16°
2026-04-28 19:43 59.25511 4.67805 18515 ft 331 kts 15°
2026-04-28 19:43 59.27718 4.69067 17966 ft 329 kts 15°
2026-04-28 19:43 59.29907 4.70321 17470 ft 326 kts 15°
2026-04-28 19:43 59.32077 4.71565 16971 ft 323 kts 15°
2026-04-28 19:44 59.34227 4.72799 16483 ft 321 kts 15°
2026-04-28 19:44 59.36369 4.74030 15992 ft 319 kts 15°
2026-04-28 19:44 59.38497 4.75255 15527 ft 317 kts 15°
2026-04-28 19:44 59.40611 4.76473 15061 ft 316 kts 15°
2026-04-28 19:45 59.42721 4.77690 14595 ft 316 kts 15°
2026-04-28 19:45 59.44838 4.78913 14104 ft 318 kts 15°
2026-04-28 19:45 59.46938 4.80128 13591 ft 322 kts 15°
2026-04-28 19:45 59.49099 4.81379 13074 ft 326 kts 15°
2026-04-28 19:46 59.51267 4.82637 12596 ft 326 kts 15°
2026-04-28 19:46 59.53434 4.83897 12105 ft 323 kts 15°
2026-04-28 19:46 59.55579 4.85145 11628 ft 320 kts 15°
2026-04-28 19:46 59.57695 4.86378 11326 ft 312 kts 15°
2026-04-28 19:47 59.59737 4.87570 11188 ft 300 kts 15°
2026-04-28 19:47 59.61700 4.88718 11053 ft 289 kts 15°
2026-04-28 19:47 59.63605 4.89832 10908 ft 283 kts 15°
2026-04-28 19:47 59.65481 4.90930 10790 ft 279 kts 15°
2026-04-28 19:48 59.67320 4.92007 10674 ft 275 kts 15°
2026-04-28 19:48 59.69123 4.93065 10552 ft 266 kts 15°
2026-04-28 19:48 59.70881 4.94097 10291 ft 262 kts 15°
2026-04-28 19:48 59.72626 4.95122 9983 ft 260 kts 15°
2026-04-28 19:49 59.74358 4.96141 9677 ft 258 kts 15°
2026-04-28 19:49 59.76070 4.97149 9386 ft 257 kts 15°
2026-04-28 19:49 59.77790 4.98163 9036 ft 259 kts 15°
2026-04-28 19:49 59.79521 4.99184 8704 ft 259 kts 15°
2026-04-28 19:50 59.82942 5.01239 8032 ft 258 kts 18°
2026-04-28 19:50 59.84589 5.02670 7685 ft 259 kts 24°
2026-04-28 19:50 59.86214 5.04256 7315 ft 260 kts 24°
2026-04-28 19:51 59.87839 5.05858 6972 ft 260 kts 24°
2026-04-28 19:51 59.89465 5.07451 6618 ft 260 kts 24°
2026-04-28 19:51 59.91095 5.09033 6254 ft 260 kts 24°
2026-04-28 19:51 59.92729 5.10608 5879 ft 261 kts 24°
2026-04-28 19:52 59.94339 5.12154 5540 ft 260 kts 24°
2026-04-28 19:52 59.95971 5.13717 5171 ft 258 kts 24°
2026-04-28 19:52 59.97578 5.15255 4837 ft 254 kts 24°
2026-04-28 19:52 59.99144 5.16755 4504 ft 245 kts 24°
2026-04-28 19:53 60.00658 5.18204 4194 ft 238 kts 24°
2026-04-28 19:53 60.02133 5.19615 4045 ft 230 kts 24°
2026-04-28 19:53 60.03532 5.20956 4017 ft 214 kts 24°
2026-04-28 19:53 60.04823 5.22193 4002 ft 199 kts 24°
2026-04-28 19:54 60.06054 5.23373 3991 ft 194 kts 23°
2026-04-28 19:54 60.07276 5.24543 4012 ft 196 kts 24°
2026-04-28 19:54 60.08536 5.25751 3713 ft 207 kts 24°
2026-04-28 19:54 60.09833 5.26997 3323 ft 205 kts 24°
2026-04-28 19:55 60.11168 5.27794 3020 ft 196 kts 358°
2026-04-28 19:55 60.12441 5.27411 2987 ft 174 kts 352°
2026-04-28 19:55 60.13586 5.27095 2993 ft 163 kts 352°
2026-04-28 19:55 60.14700 5.26753 2900 ft 166 kts 351°
2026-04-28 19:56 60.15852 5.26373 2682 ft 165 kts 351°
2026-04-28 19:56 60.16949 5.26004 2460 ft 156 kts 351°
2026-04-28 19:56 60.17957 5.25662 2268 ft 140 kts 351°
2026-04-28 19:56 60.18904 5.25343 2084 ft 137 kts 351°
2026-04-28 19:57 60.19848 5.25024 1891 ft 138 kts 351°
2026-04-28 19:57 60.20795 5.24704 1700 ft 138 kts 351°
2026-04-28 19:57 60.21734 5.24387 1507 ft 136 kts 351°
2026-04-28 19:57 60.22667 5.24071 1323 ft 136 kts 351°
2026-04-28 19:58 60.23598 5.23756 1133 ft 136 kts 351°
2026-04-28 19:58 60.24534 5.23440 943 ft 137 kts 350°
2026-04-28 19:58 60.25484 5.23119 759 ft 139 kts 350°
2026-04-28 19:58 60.26427 5.22800 563 ft 137 kts 349°
2026-04-28 19:59 60.27382 5.22477 379 ft 141 kts 348°
2026-04-28 19:59 60.28358 5.22147 205 ft 141 kts 349°
2026-04-28 19:59 60.29213 5.21859 158 ft 96 kts 350°
2026-04-28 19:59 60.29651 5.21712 148 ft 33 kts 351°
2026-04-28 20:00 60.29696 5.21703 149 ft 0 kts 18°
2026-04-28 20:00 60.29705 5.21739 149 ft 7 kts 73°
2026-04-28 20:00 60.29716 5.21870 147 ft 7 kts 83°
2026-04-28 20:00 60.29719 5.21954 147 ft 6 kts 94°
2026-04-28 20:01 60.29696 5.22017 147 ft 6 kts 154°
2026-04-28 20:01 60.29653 5.22033 147 ft 9 kts 171°
2026-04-28 20:01 60.29576 5.22059 150 ft 14 kts 171°
2026-04-28 20:01 60.29462 5.22100 155 ft 19 kts 171°
2026-04-28 20:02 60.29320 5.22143 160 ft 20 kts 171°
2026-04-28 20:02 60.29183 5.22191 162 ft 20 kts 171°
2026-04-28 20:02 60.29050 5.22236 162 ft 19 kts 170°
2026-04-28 20:02 60.28923 5.22278 161 ft 18 kts 171°
2026-04-28 20:03 60.28799 5.22320 161 ft 17 kts 171°
2026-04-28 20:03 60.28713 5.22352 163 ft 8 kts 166°
2026-04-28 20:03 60.28689 5.22435 164 ft 8 kts 66°
2026-04-28 20:03 60.28735 5.22492 165 ft 8 kts 33°
2026-04-28 20:04 60.28778 5.22551 169 ft 7 kts 34°
2026-04-28 20:04 60.28813 5.22598 172 ft 4 kts 34°
2026-04-28 20:04 60.28825 5.22616 172 ft 1 kts 34°
2026-04-28 20:04 60.28827 5.22618 172 ft 0 kts 34°